Regional Weather Roundup
Issued by NWS

Home | Current Version | Previous Version | Text Only | Print | Product List | Glossary Off
Versions: 1 2 3 4 5 6 7 8 9 10 11 12 13 14 15 16 17 18 19 20 21 22 23 24 25 26 27 28 29 30 31 32 33 34 35 36 37 38 39 40 41 42 43 44 45 46 47 48 49 50

000
ASUS44 KMEG 260710
RWRTN
TENNESSEE HOURLY STATE WEATHER ROUNDUP
NATIONAL WEATHER SERVICE MEMPHIS TN
200 AM CDT TUE SEP 26 2017

TNZ002-004-019-021-049-052-054-088>092-260800-
WEST TENNESSEE

CITY           SKY/WX    TMP DP  RH WIND       PRES   REMARKS
MEMPHIS INTL   CLEAR     73  66  78 CALM      29.95F
NWS MEMPHIS      N/A     68 N/A N/A MISG        N/A
JACKSON        CLEAR     67  67 100 CALM      29.97R
DYERSBURG      CLEAR     69  67  93 CALM      29.97R
SOMERVILLE     CLEAR     68  66  94 CALM      29.95S
COVINGTON      CLEAR     66  64  94 CALM      29.95S
BOLIVAR        CLEAR     66  66 100 CALM      29.96S FOG
PARIS          PTCLDY    66  64  94 CALM      29.96S
HUNTINGDON     PTCLDY    68  66  94 CALM      29.96R
LEXINGTON      CLEAR     68  66  94 CALM      29.96S FOG
SELMER         CLEAR     66  64  94 CALM      29.96S
SAVANNAH       CLEAR     66  64  94 CALM      29.96R
$$

TNZ008-025-027-028-033-062-065-066-260800-
NORTH MIDDLE TENNESSEE

CITY           SKY/WX    TMP DP  RH WIND       PRES   REMARKS
NASHVILLE      CLEAR     70  67  90 CALM      29.98R
PORTLAND       CLEAR     66  64  94 CALM      29.98S
CLARKSVILLE    CLEAR     67  64  90 CALM      29.97S
SMYRNA           N/A    N/A N/A N/A MISG        N/A
COOKEVILLE     FOG       59  59 100 CALM      30.00R VSB 1/2
GALLATIN       CLEAR     66  64  94 CALM      30.00S
CROSSVILLE     CLEAR     60  59  96 CALM      30.04S FOG
$$

TNZ061-075-076-078-094-096-097-260800-
SOUTH MIDDLE TENNESSEE

CITY           SKY/WX    TMP DP  RH WIND       PRES   REMARKS
FAYETTEVILLE   CLEAR     68  66  94 CALM      29.98S
TULLAHOMA      CLEAR     64  61  88 CALM      30.01R
WINCHESTER     CLEAR     63  61  94 CALM      30.00S
MCMINNVILLE    CLEAR     63  63 100 CALM      30.00S
COLUMBIA       CLEAR     66 N/A N/A CALM      29.96S
SHELBYVILLE    CLEAR     64  64 100 CALM      29.98S FOG
$$

TNZ017-018-042-046-047-260800-
NORTHEAST TENNESSEE

CITY           SKY/WX    TMP DP  RH WIND       PRES   REMARKS
TRI CITIES     PTCLDY    61  60  97 CALM      30.04R
ELIZABETHTON   PTCLDY    61  59  94 CALM      30.05R
$$

TNZ012-013-036-069-073-074-260800-
CENTRAL EAST TENNESSEE

CITY           SKY/WX    TMP DP  RH WIND       PRES   REMARKS
KNOXVILLE      PTCLDY    64  60  87 NE6       29.99R
OAK RIDGE      CLEAR     64  61  90 CALM      30.01S
DOWNTOWN KNOXV FOG       63  63 100 CALM      29.99R VSB 1/2
GATLINBURG     CLEAR     61  57  88 CALM      30.00R
MORRISTOWN     CLEAR     66  59  77 E5        30.01R
JACKSBORO      CLEAR     61  61 100 CALM      30.04F
$$

TNZ083-085-099-260800-
SOUTHEAST TENNESSEE

CITY           SKY/WX    TMP DP  RH WIND       PRES   REMARKS
CHATTANOOGA    CLEAR     66  63  90 CALM      29.99S
DAYTON         SUNNY     63  63 100 CALM      29.98S
$$

SKY/WX REPORTED AS FAIR MEANS FEW OR NO CLOUDS BELOW
12 THOUSAND FEET.





USA.gov is the U.S. government's official web portal to all federal, state and local government web resources and services.